RH
53 55 58 64 63 65 67 62 73 87 86 90 90 90 89 83 85 81 76 73 71 70 69 66 63 61 63 63 59 61 64 63 62 54 49 52 53 58 58 55 55 55 53 52 53 54 55 55 55 53 51 50 48 47 45 40 36 36 36 36 36 36 35 34 34 35 35 35 37 39 38 37 37 37 38 38 39 40 40 43 47 49 49 49 48 49 51 51 49 50 50 49 51 54 57 53 50
59 61 63 65 63 65 72 70 78 90 90 92 92 90 88 82 83 80 74 72 71 70 70 68 63 60 60 59 54 55 57 56 55 49 48 52 57 58 55 55 56 54 51 50 50 51 52 53 53 53 51 49 46 42 38 36 36 37 38 36 36 35 35 36 36 38 39 40 40 40 39 39 39 39 41 42 42 43 45 48 52 53 51 50 50 51 53 53 53 56 56 53 52 54 57 56 54
66 65 64 62 62 64 72 82 85 89 91 91 91 88 85 81 80 76 71 69 68 69 67 65 62 62 58 53 49 48 48 48 48 45 50 56 58 58 57 57 53 49 48 49 49 49 50 52 53 53 50 47 42 37 36 37 38 38 36 35 36 36 38 40 42 43 42 42 42 43 44 44 44 44 45 46 46 47 50 51 55 56 53 52 54 54 54 55 56 59 60 55 53 54 58 59 57
67 65 61 59 67 71 75 84 87 89 89 88 88 86 84 80 77 72 68 65 68 67 63 60 61 60 55 48 45 47 47 46 49 48 52 57 55 55 57 56 50 47 48 48 48 47 49 50 52 50 47 45 39 36 37 39 39 37 35 36 39 41 43 44 45 45 44 43 45 47 48 48 49 50 51 52 52 52 53 54 57 58 56 57 58 58 58 58 58 61 61 56 55 56 59 60 57
64 62 58 60 72 82 84 84 87 87 84 87 88 84 80 75 73 70 65 66 70 67 61 60 60 58 55 51 44 46 51 51 51 50 51 54 54 54 56 56 54 52 50 47 46 47 48 50 49 47 47 43 38 38 40 41 40 38 39 41 43 44 44 45 46 46 46 47 50 52 52 51 52 54 54 54 56 56 58 57 58 59 58 60 61 61 62 62 61 62 60 57 56 55 58 59 56
62 61 57 61 72 82 87 86 87 85 81 84 85 81 76 71 70 67 65 69 70 66 63 63 60 56 54 51 44 44 51 53 50 48 49 52 52 55 55 57 59 57 50 44 45 47 49 49 47 46 45 40 38 42 44 42 40 41 44 45 46 46 46 47 47 48 50 51 53 55 56 56 56 57 57 57 58 58 59 58 57 58 58 60 61 64 66 65 63 62 61 59 57 56 58 58 57
61 62 62 68 76 81 85 87 86 85 84 82 82 81 76 71 68 65 66 70 70 69 66 65 59 51 51 50 48 46 49 53 48 44 47 49 53 58 58 58 62 58 49 42 43 46 47 47 45 44 42 38 40 43 43 43 43 45 47 46 46 48 49 49 48 50 53 54 55 55 57 59 59 58 57 56 56 56 55 54 55 57 59 62 63 67 69 65 63 62 62 61 61 60 61 59 57
60 66 74 78 83 83 84 88 85 82 85 82 79 79 76 72 67 65 69 71 71 71 66 66 58 50 52 50 49 48 49 53 47 43 45 49 54 59 59 59 60 57 48 42 42 44 45 45 42 41 40 40 41 42 44 46 49 50 50 48 48 50 51 50 50 53 54 55 56 55 57 58 58 56 54 55 55 55 54 53 55 58 61 62 62 67 68 64 62 61 62 62 63 63 62 59 56
61 67 77 78 81 86 85 87 84 81 84 81 78 78 77 73 68 67 71 72 70 70 67 67 57 49 51 47 49 49 49 49 44 44 48 52 54 56 58 57 56 55 48 42 42 43 42 42 40 40 40 40 41 42 45 50 52 52 52 51 51 51 52 51 51 53 55 55 55 55 56 56 55 55 55 56 55 55 55 57 60 61 62 61 60 61 63 63 63 61 62 62 61 60 59 58 56
63 68 76 77 79 86 87 85 81 81 82 80 78 77 79 75 71 71 73 74 72 69 69 68 57 46 47 48 52 48 45 46 45 48 51 53 54 55 56 56 55 52 47 41 40 41 40 39 39 40 39 39 41 43 46 49 51 51 52 52 52 54 53 53 53 55 55 55 55 55 56 56 54 54 56 56 55 56 56 59 61 61 60 60 59 59 60 61 61 59 60 61 59 58 57 55 53
66 72 75 78 82 84 87 85 79 82 83 79 78 78 80 77 74 73 74 77 75 70 69 66 55 45 46 51 54 47 43 44 46 52 54 54 54 57 57 57 57 52 45 40 38 38 37 38 38 39 39 40 41 42 46 48 48 49 51 52 54 55 53 53 55 56 56 56 55 55 55 55 53 52 55 55 55 56 57 59 59 58 57 57 57 58 58 58 57 56 55 57 57 56 54 51 49
69 78 76 79 83 81 83 85 81 83 86 83 80 79 80 78 76 74 75 76 73 71 69 63 54 45 45 49 50 45 42 42 44 49 50 52 53 57 59 56 56 53 45 39 35 35 35 37 38 39 39 39 39 42 47 47 47 48 50 52 55 55 53 52 55 56 56 56 54 54 54 52 50 51 54 54 54 55 56 58 57 55 56 56 55 56 56 55 55 53 52 52 53 52 50 49 48
71 81 80 80 82 81 82 85 85 85 88 88 85 82 80 78 78 76 75 75 73 71 68 61 50 45 44 44 48 47 45 43 43 45 47 48 49 54 59 57 53 52 48 40 34 34 35 36 37 38 37 37 39 44 48 48 48 48 50 53 56 54 51 51 53 54 55 55 54 53 52 50 48 50 53 53 53 54 56 56 55 54 54 54 55 55 55 53 52 51 50 48 49 48 47 48 49
72 78 77 79 80 82 82 81 85 87 90 90 88 84 81 79 79 78 75 75 75 70 67 62 51 45 43 41 47 49 46 43 42 43 46 46 47 52 57 57 53 50 48 41 33 32 35 36 36 36 36 37 42 47 49 49 48 48 51 53 56 54 51 52 53 53 54 54 52 51 50 49 49 49 52 53 53 54 55 56 55 53 52 53 55 55 55 53 51 50 49 47 46 46 47 48 50
69 72 73 76 76 81 83 80 84 88 89 89 88 86 83 83 80 77 77 77 75 69 67 65 55 46 42 39 42 45 43 41 41 41 44 47 49 52 54 53 52 49 46 40 34 35 37 37 36 35 38 42 46 49 49 48 48 48 50 52 55 54 51 51 52 52 53 53 52 51 50 49 50 50 51 52 53 53 54 55 54 52 51 52 53 52 52 52 51 51 50 48 46 46 48 48 48
65 67 73 76 75 80 83 82 86 90 89 87 87 86 85 85 80 78 79 77 72 68 69 67 59 50 44 40 38 39 40 40 40 41 43 47 48 52 53 50 50 49 46 45 44 45 44 39 36 38 44 48 49 49 48 49 49 50 52 53 54 53 50 51 52 52 51 51 51 51 50 49 50 51 52 52 52 53 53 54 53 51 48 47 49 51 51 51 51 50 50 48 47 46 47 47 45
64 66 70 74 77 80 81 82 85 88 87 85 86 86 83 82 82 81 79 75 71 69 70 68 60 54 48 40 36 35 37 39 40 42 43 44 47 50 51 49 49 47 47 50 52 54 51 45 42 44 50 52 51 49 48 50 51 50 52 54 53 51 49 50 51 51 52 53 52 52 51 51 50 51 52 52 52 53 54 53 52 50 46 45 47 48 49 49 49 48 48 48 48 47 46 46 44
64 66 70 73 77 80 80 81 81 83 84 83 85 85 81 78 80 81 77 76 74 69 70 67 60 59 52 39 36 34 34 37 40 43 43 43 45 48 50 50 49 49 50 52 55 57 55 51 49 50 54 54 51 51 48 49 51 50 51 54 53 51 49 50 52 54 55 54 53 52 51 51 50 50 49 51 53 54 55 53 50 49 46 45 45 44 43 44 45 46 46 47 48 48 47 46 47
63 70 77 77 77 79 79 79 80 80 81 81 83 82 79 78 78 77 75 75 75 71 70 67 65 66 54 38 35 34 33 38 41 42 42 43 43 45 49 50 50 50 51 53 55 54 52 52 51 52 54 53 53 54 51 50 52 51 52 55 54 52 50 52 53 55 55 54 54 52 52 53 52 48 46 50 54 55 54 51 48 46 46 44 42 42 41 39 40 41 43 43 45 46 47 47 48
66 71 77 76 74 76 75 78 79 78 80 79 79 79 79 78 77 75 74 74 75 74 70 68 69 65 50 38 35 33 35 38 40 41 41 42 41 42 47 49 51 51 51 53 53 52 50 50 50 51 53 53 53 54 53 53 53 54 54 54 54 52 49 50 52 54 55 54 55 53 51 53 53 50 46 48 53 54 52 50 46 44 45 43 38 36 36 36 36 39 41 41 42 44 45 47 49
68 66 68 71 72 73 73 77 78 76 78 79 77 76 78 77 75 74 73 74 76 76 74 71 68 58 44 38 36 34 36 38 40 41 40 40 40 41 46 49 50 51 52 52 53 51 49 50 48 46 50 53 54 53 53 55 57 58 57 53 52 52 49 47 48 53 56 56 56 54 53 55 56 54 50 50 52 53 52 51 49 47 48 46 41 37 36 40 40 39 40 40 43 44 45 47 48
65 63 65 68 70 71 72 75 78 77 76 77 76 76 76 74 73 74 71 73 76 74 76 73 61 50 42 37 37 36 38 39 40 42 41 39 39 40 46 51 51 51 53 54 53 51 49 51 46 43 50 54 54 54 53 55 57 58 58 54 51 51 50 48 49 53 56 58 58 55 55 54 54 55 54 53 53 52 52 51 51 51 51 49 46 43 43 45 45 43 43 43 45 46 46 45 45
67 66 66 67 69 69 69 71 75 78 77 75 76 76 76 73 74 75 70 71 74 71 73 72 60 50 43 38 39 39 40 40 40 41 40 39 38 40 45 49 52 52 52 54 53 50 51 51 43 42 50 54 55 55 55 57 58 59 58 55 52 50 50 52 55 56 57 58 59 59 58 55 54 55 55 56 55 53 54 54 54 54 53 52 49 47 45 45 45 45 47 47 45 46 47 46 44
70 71 67 66 68 64 63 67 70 76 78 77 77 77 77 77 78 77 73 73 73 71 71 70 62 54 45 40 41 41 40 38 39 40 41 40 39 41 46 47 51 52 50 51 52 51 51 48 42 43 48 51 55 55 57 61 61 60 57 55 55 52 53 55 56 58 59 59 61 63 59 56 57 57 57 59 59 58 59 58 56 55 54 53 51 47 44 43 44 46 48 48 46 48 48 46 45
62 67 66 65 64 61 61 62 65 72 76 77 78 78 79 79 78 78 76 73 73 72 70 69 64 55 46 41 42 40 37 37 39 41 41 42 40 38 43 46 47 49 48 48 50 51 51 47 43 43 45 49 54 53 55 60 60 59 60 61 59 57 59 59 57 58 61 63 65 66 62 59 58 59 62 62 63 63 62 61 58 57 56 54 53 50 45 44 47 48 49 49 48 50 50 48 48
55 61 62 64 63 61 60 58 62 69 73 76 78 80 82 81 78 80 77 70 71 70 68 69 63 55 46 40 42 39 36 37 37 39 40 42 41 35 37 42 45 47 48 47 47 50 50 47 45 44 45 50 55 56 55 57 59 57 58 62 59 59 60 60 60 57 61 65 64 64 63 60 58 61 65 63 64 66 62 61 59 58 59 58 56 55 50 46 50 50 49 52 50 50 51 51 48
54 57 61 64 64 60 55 57 64 65 69 75 79 81 83 82 79 80 77 70 71 70 67 67 59 54 49 43 42 40 39 36 34 40 41 41 42 38 37 39 42 46 48 46 45 48 49 48 47 44 45 50 55 58 56 55 60 55 51 55 54 54 55 61 65 58 62 68 67 67 63 58 56 59 63 61 62 66 64 62 60 60 61 60 56 55 53 49 53 52 49 53 51 48 49 49 46
52 52 58 62 61 57 51 58 64 61 68 75 76 80 81 82 80 79 77 73 74 72 67 64 59 54 52 48 42 38 41 39 39 42 41 42 42 40 37 34 37 42 44 42 42 45 46 49 49 44 44 51 55 56 54 55 61 54 50 52 50 50 54 63 64 55 58 63 66 71 65 57 53 55 64 64 58 61 64 61 59 62 63 60 55 51 50 50 53 52 50 54 53 49 47 48 47
50 48 53 59 58 54 49 56 61 58 67 72 72 78 80 80 81 80 78 76 76 73 65 62 61 55 53 52 42 37 43 45 45 42 40 42 41 38 33 28 32 37 39 39 40 41 44 49 50 45 45 50 53 53 53 54 55 52 51 50 48 51 54 57 57 49 47 47 50 55 52 50 51 59 71 70 61 59 60 58 57 60 60 56 53 48 45 48 53 52 53 55 54 52 53 54 49
47 46 49 54 56 52 49 56 61 59 66 69 70 77 80 77 78 80 80 79 77 73 65 62 64 57 56 55 42 40 47 46 45 42 40 39 36 35 30 26 28 32 36 37 37 37 42 49 49 47 46 49 51 51 54 53 49 49 49 46 47 51 51 50 47 42 39 37 38 37 38 42 47 61 73 69 66 66 62 60 57 55 54 52 51 51 48 48 52 53 54 56 56 55 59 59 51
40 45 47 50 54 52 49 55 60 62 67 68 68 76 81 80 80 81 80 80 79 75 69 66 67 61 61 55 42 46 47 39 41 41 37 33 30 30 29 29 26 27 33 35 36 36 42 47 47 48 47 49 50 48 53 50 46 46 45 44 48 51 49 47 43 38 36 34 33 33 34 36 40 51 60 59 64 68 62 58 56 53 53 54 51 52 52 50 51 52 53 55 56 56 56 55 49
34 42 45 45 50 51 53 59 60 62 65 65 68 77 83 83 82 80 80 81 80 78 73 70 70 65 65 57 46 51 46 36 42 43 32 27 28 29 29 29 25 25 30 32 34 36 41 44 45 47 46 48 49 46 48 45 43 44 43 46 49 49 48 46 44 41 39 36 34 34 34 35 37 42 51 55 57 60 57 53 54 51 49 52 52 52 52 51 51 52 51 50 52 53 53 51 46
28 34 39 40 45 48 55 62 57 57 60 63 70 80 83 83 82 80 80 81 82 81 76 74 75 70 67 59 53 54 45 38 44 45 34 27 29 29 27 26 24 24 28 31 34 36 40 42 45 46 45 48 47 45 43 41 42 42 43 46 47 48 47 46 45 43 44 42 37 35 37 38 38 39 47 53 52 54 56 52 52 49 46 48 50 52 52 50 51 52 52 51 50 50 50 49 46
24 26 32 36 43 46 51 58 56 54 59 64 70 76 79 80 80 81 81 82 84 84 78 76 79 77 72 63 59 57 47 41 47 48 37 31 32 29 26 26 24 24 27 31 34 36 38 39 43 44 44 47 45 41 39 39 41 41 44 45 45 48 48 46 48 47 47 45 39 37 39 40 40 39 42 49 50 52 53 51 48 47 47 47 49 52 53 51 50 50 52 54 53 50 47 47 47
22 24 26 29 37 43 47 56 62 59 59 64 68 72 77 78 79 80 81 82 86 86 81 79 79 78 76 68 63 60 50 43 48 51 39 33 35 29 26 25 23 23 26 31 34 35 36 37 41 43 43 45 43 38 37 38 39 41 45 44 45 48 48 47 49 51 51 47 40 38 39 39 39 40 41 46 50 49 47 46 45 45 47 48 50 50 50 51 48 47 49 51 52 51 47 46 48
23 28 27 26 32 39 43 50 60 61 60 63 66 71 76 77 77 77 79 84 87 87 83 81 82 80 76 71 66 62 55 46 49 52 42 35 35 28 25 24 23 24 24 29 34 36 36 36 40 42 42 43 40 36 37 38 38 41 44 44 46 48 46 47 47 50 53 48 40 37 38 38 39 40 42 46 47 44 43 43 43 45 47 50 52 49 46 47 45 42 43 44 48 49 47 48 49
23 32 32 28 32 40 43 44 52 57 60 63 64 68 73 76 78 76 79 85 86 86 84 82 84 82 75 72 68 63 59 53 51 53 47 39 35 29 25 24 25 26 24 28 34 37 36 36 39 41 42 42 36 35 38 39 38 42 44 43 47 47 45 46 46 50 54 47 39 38 38 38 39 40 42 46 46 43 42 43 44 46 46 49 51 49 44 41 41 39 39 43 46 46 47 48 46
22 31 33 32 33 39 44 48 52 55 58 62 62 65 70 73 77 75 77 83 83 83 84 84 84 83 78 74 70 66 64 60 55 55 50 41 37 32 27 26 26 26 25 27 33 37 37 36 39 40 41 40 35 34 39 40 39 43 45 44 47 47 45 46 48 54 56 46 38 39 39 38 38 39 41 44 45 44 40 40 44 46 45 44 44 41 37 38 39 38 38 43 47 48 47 44 42
21 26 32 35 36 38 44 50 55 55 56 59 61 64 68 71 73 74 75 78 79 81 85 85 84 85 84 80 77 70 66 64 59 56 52 45 39 33 30 29 26 25 26 27 31 36 37 36 37 39 39 39 36 35 39 41 40 43 45 46 47 47 46 48 51 54 55 47 39 40 40 38 38 39 40 40 42 45 42 39 41 44 42 40 40 38 36 38 39 39 40 42 45 46 45 43 45
20 23 31 39 41 42 45 49 52 53 55 57 60 62 65 70 72 72 74 76 77 81 86 87 84 83 81 79 79 73 68 66 61 57 54 49 42 34 31 32 29 26 26 27 30 34 38 37 35 37 38 38 38 37 39 42 42 43 45 47 48 47 47 50 52 54 54 48 41 41 39 38 38 39 40 41 42 44 44 41 40 41 40 39 41 39 37 38 39 42 43 42 43 43 43 45 46
18 22 34 43 44 44 47 47 45 47 51 54 60 64 64 68 72 71 72 75 77 80 84 85 84 82 77 75 79 77 71 68 64 60 56 51 46 37 32 33 31 29 28 28 30 32 37 39 34 34 37 39 39 38 41 43 42 43 46 48 50 49 49 50 50 52 54 49 43 42 39 37 40 40 41 44 44 41 43 46 43 38 37 39 40 40 41 43 43 44 42 42 45 45 45 45 44
17 21 31 42 44 43 46 47 44 45 48 49 56 66 66 64 67 70 72 75 79 81 82 83 83 82 77 75 79 78 73 69 66 64 60 56 53 44 35 33 32 30 29 29 31 31 35 40 36 32 35 38 38 37 40 43 41 43 48 50 53 53 50 49 49 49 51 51 47 44 40 38 43 44 42 46 46 40 42 46 44 39 37 39 41 41 43 44 46 44 41 45 47 45 46 45 44
16 21 25 34 42 43 44 47 46 45 47 46 48 57 66 67 67 69 69 73 80 81 80 81 81 81 79 76 76 75 71 69 68 66 63 61 59 50 40 36 32 30 29 30 31 31 34 37 34 33 33 35 38 36 38 42 39 42 48 49 52 52 47 46 48 48 48 51 51 49 44 39 43 45 42 45 46 41 40 40 40 40 39 39 41 42 44 44 46 45 43 47 46 44 47 45 45
18 23 24 28 39 43 42 45 46 44 43 44 45 47 60 71 70 65 63 70 79 79 77 79 79 78 78 76 75 74 71 71 70 69 67 64 62 55 45 40 35 32 30 29 30 30 33 34 31 32 31 32 36 34 35 39 37 39 44 46 50 50 46 46 48 47 45 48 50 51 49 42 43 47 44 44 45 40 39 38 38 42 44 41 40 44 48 49 48 45 42 44 43 42 44 45 46
20 23 23 23 30 37 42 45 45 44 41 43 45 42 49 65 66 61 63 69 75 77 75 76 76 74 74 75 76 76 74 73 71 70 69 67 66 60 52 45 39 35 33 31 30 29 32 33 30 31 30 30 33 30 30 35 34 37 40 45 48 47 46 46 45 45 44 45 47 49 49 45 42 46 45 42 42 41 40 38 36 42 46 43 43 47 49 50 48 42 39 39 39 39 41 44 47
19 19 23 24 25 28 40 47 45 45 45 44 45 40 45 64 65 59 65 69 72 76 76 74 73 72 72 76 77 75 74 74 71 69 68 68 67 64 59 53 44 40 38 35 33 30 32 35 31 29 28 28 29 26 26 30 33 35 37 41 45 44 44 44 42 44 43 44 46 45 47 45 41 43 43 40 40 41 41 40 37 41 44 42 46 50 47 47 44 37 37 37 37 38 39 42 44
18 17 23 29 31 30 35 44 46 46 47 45 44 40 42 58 64 58 60 65 67 72 75 74 72 70 70 74 76 74 73 73 71 69 69 69 69 67 65 61 53 46 42 38 37 34 34 35 32 27 26 28 27 24 22 25 29 33 34 37 41 40 43 43 41 43 43 42 43 42 43 45 42 41 42 39 38 40 41 42 41 43 46 44 48 50 47 47 44 39 39 38 37 39 38 40 41
19 20 25 30 38 39 36 41 45 48 48 44 44 41 37 47 58 58 57 60 64 66 69 71 71 70 68 69 73 74 73 73 72 72 72 71 71 70 69 66 59 52 46 41 39 38 37 37 34 28 25 27 27 24 22 22 25 29 31 34 36 37 40 43 43 42 41 38 38 39 39 42 42 42 44 40 37 40 39 40 44 47 47 45 45 48 48 50 49 46 44 39 37 38 38 39 40
21 24 32 35 40 45 44 42 43 44 45 43 41 40 39 50 60 61 58 59 61 63 65 68 69 70 69 67 69 71 70 70 71 73 73 72 71 71 70 67 63 59 55 49 44 41 40 40 37 29 25 26 26 24 23 21 20 24 28 31 33 34 36 40 42 40 37 32 33 37 35 37 41 43 46 42 38 43 39 36 43 46 45 45 44 47 49 50 50 48 45 42 39 36 37 39 40
23 26 33 38 41 47 46 41 40 40 39 39 38 38 46 59 64 61 61 62 61 61 63 64 65 67 69 68 67 68 67 67 69 71 71 71 71 72 70 67 65 64 62 58 52 46 44 43 41 34 26 25 26 25 24 22 20 19 23 27 30 31 32 34 36 37 35 30 31 35 33 33 38 43 47 45 41 44 40 35 41 43 42 44 43 46 48 46 48 49 45 47 47 40 39 39 39
26 25 30 36 40 43 42 38 39 38 35 36 36 38 49 60 62 61 63 64 63 63 61 60 61 64 66 66 63 63 64 63 66 69 69 69 71 72 71 68 67 67 65 62 58 53 49 47 45 39 31 26 25 25 25 24 22 19 19 22 26 28 30 30 31 34 33 30 30 34 35 35 36 40 45 46 44 44 41 37 38 39 39 40 40 42 43 41 45 48 46 50 51 43 40 40 40
31 25 27 36 38 38 36 34 35 34 34 33 34 43 52 55 58 59 61 62 64 66 64 62 62 61 62 63 62 63 65 64 65 69 70 70 71 72 73 71 70 70 69 65 61 58 55 52 49 44 35 29 26 25 26 26 24 21 19 20 22 25 28 29 29 31 31 30 30 32 35 37 37 39 43 45 44 43 42 38 34 34 35 36 37 37 39 41 43 45 45 49 51 44 40 41 43
37 27 23 30 37 37 33 31 30 30 31 29 35 49 53 53 59 61 60 61 63 65 65 64 63 59 57 62 64 65 67 67 68 70 71 71 72 73 74 74 73 71 71 69 65 61 59 59 56 49 41 33 29 25 24 27 26 24 20 19 21 22 25 27 28 29 29 31 32 32 34 37 38 40 42 44 42 39 40 38 34 33 31 31 33 34 38 42 42 43 43 44 47 47 43 42 44
37 33 24 25 33 36 34 32 30 29 29 26 36 49 49 52 61 62 64 65 64 67 67 65 63 59 57 59 61 62 65 65 65 66 67 69 71 71 72 74 74 71 71 70 68 64 63 63 60 57 49 38 32 28 24 25 27 26 23 20 20 21 21 26 29 28 29 32 33 32 34 35 37 39 42 43 41 38 37 36 36 37 34 30 29 32 36 38 40 43 43 42 44 47 46 41 42
35 37 32 29 33 34 33 34 33 31 26 23 36 47 46 55 62 59 64 67 66 67 66 62 62 61 58 56 55 57 61 62 63 64 64 67 69 70 71 72 73 72 71 70 69 65 64 65 64 63 58 46 39 36 29 26 26 28 28 23 20 21 19 23 30 30 29 32 33 31 32 34 35 38 40 42 42 38 34 32 35 38 37 32 29 30 32 31 34 39 40 40 41 44 45 43 43
35 36 36 33 33 33 32 33 32 33 30 22 33 49 50 55 63 61 64 68 67 68 66 61 61 60 58 56 53 53 54 56 61 65 65 65 67 71 73 74 73 74 72 69 70 70 69 72 72 68 62 55 53 51 41 32 27 28 30 27 22 23 21 21 27 31 30 31 33 31 31 32 34 36 36 38 42 40 34 30 31 34 35 34 29 28 29 28 29 31 33 37 41 42 43 43 44
32 33 34 32 31 30 30 29 26 33 35 22 31 59 62 55 61 63 62 65 66 68 66 63 64 61 55 53 52 52 53 54 57 61 63 63 66 70 73 75 75 76 74 69 70 74 73 73 73 71 67 61 61 63 56 46 38 32 33 30 24 24 24 22 25 29 30 31 32 32 32 31 33 34 34 34 37 39 36 32 30 30 33 34 30 28 28 28 27 27 29 33 38 40 41 41 42
28 29 30 29 29 31 30 28 27 31 36 28 33 60 66 57 58 60 58 59 61 63 63 61 64 61 52 48 49 50 52 52 53 58 61 61 62 66 70 74 75 76 76 73 71 73 72 70 68 68 68 67 68 68 62 55 51 44 37 35 31 26 25 26 27 27 28 30 31 31 31 31 32 33 34 34 34 35 35 35 34 32 32 34 33 28 27 29 28 26 27 30 31 33 35 37 36